Year,Month,Day,Hour,Minute,Value (Times are PST for temperature in C)
2013,08,08,09,05,20.00
2013,08,08,09,06,20.10
2013,08,08,09,07,20.10
2013,08,08,09,08,20.10
2013,08,08,09,09,20.10
2013,08,08,09,10,20.20
2013,08,08,09,11,20.30
2013,08,08,09,12,20.30
2013,08,08,09,13,20.30
2013,08,08,09,14,20.30
2013,08,08,09,15,20.30
2013,08,08,09,16,20.40
2013,08,08,09,17,20.40
2013,08,08,09,18,20.40
2013,08,08,09,19,20.50
2013,08,08,09,20,20.50
2013,08,08,09,21,20.50
2013,08,08,09,22,20.50
2013,08,08,09,23,20.60
2013,08,08,09,24,20.60
2013,08,08,09,25,20.50
2013,08,08,09,26,20.50
2013,08,08,09,27,20.40
2013,08,08,09,28,20.30
2013,08,08,09,29,20.30
2013,08,08,09,30,20.30
2013,08,08,09,31,20.30
2013,08,08,09,32,20.30
2013,08,08,09,33,20.30
2013,08,08,09,34,20.30
2013,08,08,09,35,20.30
2013,08,08,09,36,20.30
2013,08,08,09,37,20.20
2013,08,08,09,38,20.20
2013,08,08,09,39,20.20
2013,08,08,09,40,20.20
2013,08,08,09,41,20.20
2013,08,08,09,42,20.20
2013,08,08,09,43,20.20
2013,08,08,09,44,20.20
2013,08,08,09,45,20.20
2013,08,08,09,46,20.20
2013,08,08,09,47,20.20
2013,08,08,09,48,20.20
2013,08,08,09,49,20.30
2013,08,08,09,50,20.30
2013,08,08,09,51,20.30
2013,08,08,09,52,20.30
2013,08,08,09,53,20.30
2013,08,08,09,54,20.30
2013,08,08,09,55,20.30
2013,08,08,09,56,20.30
2013,08,08,09,57,20.30
2013,08,08,09,58,20.30
2013,08,08,09,59,20.40
2013,08,08,10,00,20.40
2013,08,08,10,01,20.40
2013,08,08,10,02,20.30
2013,08,08,10,03,20.30
2013,08,08,10,04,20.30
2013,08,08,10,05,20.30
2013,08,08,10,06,20.20
2013,08,08,10,07,20.10
2013,08,08,10,08,20.00
2013,08,08,10,09,20.00
2013,08,08,10,10,20.00
2013,08,08,10,11,20.10
2013,08,08,10,12,20.10
2013,08,08,10,13,20.20
2013,08,08,10,14,20.20
2013,08,08,10,15,20.30
2013,08,08,10,16,20.30
2013,08,08,10,17,20.40
2013,08,08,10,18,20.40
2013,08,08,10,19,20.40
2013,08,08,10,20,20.20
2013,08,08,10,21,20.10
2013,08,08,10,22,20.10
2013,08,08,10,23,20.10
2013,08,08,10,24,20.00
2013,08,08,10,25,20.00
2013,08,08,10,26,20.00
2013,08,08,10,27,20.00
2013,08,08,10,28,20.00
2013,08,08,10,29,20.10
2013,08,08,10,30,20.10
2013,08,08,10,31,20.20
2013,08,08,10,32,20.30
2013,08,08,10,33,20.40
2013,08,08,10,34,20.40
2013,08,08,10,35,20.40
2013,08,08,10,36,20.50
2013,08,08,10,37,20.50
2013,08,08,10,38,20.50
2013,08,08,10,39,20.50
2013,08,08,10,40,20.50
2013,08,08,10,41,20.40
2013,08,08,10,42,20.40
2013,08,08,10,43,20.40
2013,08,08,10,44,20.50
2013,08,08,10,45,20.50
2013,08,08,10,46,20.60
2013,08,08,10,47,20.60
2013,08,08,10,48,20.60
2013,08,08,10,49,20.60
2013,08,08,10,50,20.60
2013,08,08,10,51,20.70
2013,08,08,10,52,20.70
2013,08,08,10,53,20.80
2013,08,08,10,54,20.80
2013,08,08,10,55,20.90
2013,08,08,10,56,21.00
2013,08,08,10,57,21.00
2013,08,08,10,58,21.00
2013,08,08,10,59,20.90
2013,08,08,11,00,20.90
2013,08,08,11,01,20.80
2013,08,08,11,02,20.80
2013,08,08,11,03,20.80
2013,08,08,11,04,20.70
2013,08,08,11,05,20.70
2013,08,08,11,06,20.60
2013,08,08,11,07,20.50
2013,08,08,11,08,20.50
2013,08,08,11,09,20.50
2013,08,08,11,10,20.50
2013,08,08,11,11,20.50
2013,08,08,11,12,20.50
2013,08,08,11,13,20.50
2013,08,08,11,14,20.50
2013,08,08,11,15,20.50
2013,08,08,11,16,20.40
2013,08,08,11,17,20.40
2013,08,08,11,18,20.40
2013,08,08,11,19,20.40
2013,08,08,11,20,20.40
2013,08,08,11,21,20.50
2013,08,08,11,22,20.50
2013,08,08,11,23,20.60
2013,08,08,11,24,20.70
2013,08,08,11,25,20.70
2013,08,08,11,26,20.70
2013,08,08,11,27,20.70
2013,08,08,11,28,20.70
2013,08,08,11,29,20.70
2013,08,08,11,30,20.70
2013,08,08,11,31,20.60
2013,08,08,11,32,20.60
2013,08,08,11,33,20.60
2013,08,08,11,34,20.70
2013,08,08,11,35,20.60
2013,08,08,11,36,20.50
2013,08,08,11,37,20.50
2013,08,08,11,38,20.50
2013,08,08,11,39,20.40
2013,08,08,11,40,20.40
2013,08,08,11,41,20.40
2013,08,08,11,42,20.50
2013,08,08,11,43,20.60
2013,08,08,11,44,20.60
2013,08,08,11,45,20.60
2013,08,08,11,46,20.70
2013,08,08,11,47,20.70
2013,08,08,11,48,20.70
2013,08,08,11,49,20.70
2013,08,08,11,50,20.80
2013,08,08,11,51,20.90
2013,08,08,11,52,21.00
2013,08,08,11,53,21.00
2013,08,08,11,54,21.10
2013,08,08,11,55,21.20
2013,08,08,11,56,21.10
2013,08,08,11,57,21.10
2013,08,08,11,58,21.10
2013,08,08,11,59,21.10
2013,08,08,12,00,21.10
2013,08,08,12,01,21.10
2013,08,08,12,02,21.10
2013,08,08,12,03,21.00
2013,08,08,12,04,21.10
2013,08,08,12,05,21.10
2013,08,08,12,06,21.10
2013,08,08,12,07,21.20
2013,08,08,12,08,21.30
2013,08,08,12,09,21.30
2013,08,08,12,10,21.30
2013,08,08,12,11,21.30
2013,08,08,12,12,21.10
2013,08,08,12,13,21.10
2013,08,08,12,14,21.10
2013,08,08,12,15,21.10
2013,08,08,12,16,21.00
2013,08,08,12,17,21.00
2013,08,08,12,18,21.00
2013,08,08,12,19,21.10
2013,08,08,12,20,21.20
2013,08,08,12,21,21.20
2013,08,08,12,22,21.20
2013,08,08,12,23,21.20
2013,08,08,12,24,21.30
2013,08,08,12,25,21.40
2013,08,08,12,26,21.40
2013,08,08,12,27,21.40
2013,08,08,12,28,21.50
2013,08,08,12,29,21.50
2013,08,08,12,30,21.60
2013,08,08,12,31,21.60
2013,08,08,12,32,21.60
2013,08,08,12,33,21.80
2013,08,08,12,34,21.80
2013,08,08,12,35,21.80
2013,08,08,12,36,21.90
2013,08,08,12,37,22.00
2013,08,08,12,38,22.00
2013,08,08,12,39,22.10
2013,08,08,12,40,22.20
2013,08,08,12,41,22.20
2013,08,08,12,42,22.20
2013,08,08,12,43,22.30
2013,08,08,12,44,22.40
2013,08,08,12,45,22.50
2013,08,08,12,46,22.60
2013,08,08,12,47,22.70
2013,08,08,12,48,22.70
2013,08,08,12,49,22.70
2013,08,08,12,50,22.70
2013,08,08,12,51,22.70
2013,08,08,12,52,22.70
2013,08,08,12,53,22.60
2013,08,08,12,54,22.60
2013,08,08,12,55,22.50
2013,08,08,12,56,22.50
2013,08,08,12,57,22.60
2013,08,08,12,58,22.60
2013,08,08,12,59,22.70
2013,08,08,13,00,22.70
2013,08,08,13,01,22.70
2013,08,08,13,02,22.70
2013,08,08,13,03,22.80
2013,08,08,13,04,22.80
2013,08,08,13,05,22.80
2013,08,08,13,06,22.80
2013,08,08,13,07,22.80
2013,08,08,13,08,22.80
2013,08,08,13,09,22.80
2013,08,08,13,10,22.80
2013,08,08,13,11,22.90
2013,08,08,13,12,22.90
2013,08,08,13,13,23.00
2013,08,08,13,14,23.00
2013,08,08,13,15,23.00
2013,08,08,13,16,23.00
2013,08,08,13,17,23.10
2013,08,08,13,18,23.20
2013,08,08,13,19,23.20
2013,08,08,13,20,23.30
2013,08,08,13,21,23.40
2013,08,08,13,22,23.40
2013,08,08,13,23,23.50
2013,08,08,13,24,23.50
2013,08,08,13,25,23.60
2013,08,08,13,26,23.50
2013,08,08,13,27,23.50
2013,08,08,13,28,23.50
2013,08,08,13,29,23.40
2013,08,08,13,30,23.30
2013,08,08,13,31,23.30
2013,08,08,13,32,23.30
2013,08,08,13,33,23.40
2013,08,08,13,34,23.40
2013,08,08,13,35,23.50
2013,08,08,13,36,23.60
2013,08,08,13,37,23.50
2013,08,08,13,38,23.50
2013,08,08,13,39,23.60
2013,08,08,13,40,23.70
2013,08,08,13,41,23.70
2013,08,08,13,42,23.80
2013,08,08,13,43,23.90
2013,08,08,13,44,23.90
2013,08,08,13,45,23.80
2013,08,08,13,46,23.80
2013,08,08,13,47,23.80
2013,08,08,13,48,23.80
2013,08,08,13,49,23.90
2013,08,08,13,50,23.80
2013,08,08,13,51,23.80
2013,08,08,13,52,23.70
2013,08,08,13,53,23.60
2013,08,08,13,54,23.60
2013,08,08,13,55,23.60
2013,08,08,13,56,23.60
2013,08,08,13,57,23.60
2013,08,08,13,58,23.70
2013,08,08,13,59,23.70
2013,08,08,14,00,23.70
2013,08,08,14,01,23.70
2013,08,08,14,02,23.70
2013,08,08,14,03,23.80
2013,08,08,14,04,23.90
2013,08,08,14,05,24.00
2013,08,08,14,06,24.10
2013,08,08,14,07,24.20
2013,08,08,14,08,24.30
2013,08,08,14,09,24.20
2013,08,08,14,10,24.20
2013,08,08,14,11,24.20
2013,08,08,14,12,24.20
2013,08,08,14,13,24.20
2013,08,08,14,14,24.10
2013,08,08,14,15,24.10
2013,08,08,14,16,24.20
2013,08,08,14,17,24.30
2013,08,08,14,18,24.30
2013,08,08,14,19,24.30
2013,08,08,14,20,24.30
2013,08,08,14,21,24.30
2013,08,08,14,22,24.30
2013,08,08,14,23,24.40
2013,08,08,14,24,24.40
2013,08,08,14,25,24.50
2013,08,08,14,26,24.50
2013,08,08,14,27,24.60
2013,08,08,14,28,24.70
2013,08,08,14,29,24.80
2013,08,08,14,30,24.80
2013,08,08,14,31,24.80
2013,08,08,14,32,24.80
2013,08,08,14,33,24.80
2013,08,08,14,34,24.80
2013,08,08,14,35,24.80
2013,08,08,14,36,24.80
2013,08,08,14,37,24.80
2013,08,08,14,38,24.90
2013,08,08,14,39,24.90
2013,08,08,14,40,24.90
2013,08,08,14,41,24.80
2013,08,08,14,42,24.80
2013,08,08,14,43,24.70
2013,08,08,14,44,24.70
2013,08,08,14,45,24.60
2013,08,08,14,46,24.60
2013,08,08,14,47,24.60
2013,08,08,14,48,24.60
2013,08,08,14,49,24.50
2013,08,08,14,50,24.50
2013,08,08,14,51,24.50
2013,08,08,14,52,24.60
2013,08,08,14,53,24.80
2013,08,08,14,54,24.80
2013,08,08,14,55,24.90
2013,08,08,14,56,24.90
2013,08,08,14,57,25.00
2013,08,08,14,58,25.10
2013,08,08,14,59,25.10
2013,08,08,15,00,25.10
2013,08,08,15,01,25.10
2013,08,08,15,02,25.00
2013,08,08,15,03,25.00
2013,08,08,15,04,25.10
2013,08,08,15,05,25.10
2013,08,08,15,06,25.10
2013,08,08,15,07,25.10
2013,08,08,15,08,25.10
2013,08,08,15,09,25.00
2013,08,08,15,10,24.90
2013,08,08,15,11,25.00
2013,08,08,15,12,25.00
2013,08,08,15,13,25.00
2013,08,08,15,14,24.90
2013,08,08,15,15,24.90
2013,08,08,15,16,24.80
2013,08,08,15,17,24.80
2013,08,08,15,18,24.90
2013,08,08,15,19,25.00
2013,08,08,15,20,25.10
2013,08,08,15,21,25.10
2013,08,08,15,22,25.20
2013,08,08,15,23,25.20
2013,08,08,15,24,25.20
2013,08,08,15,25,25.20
2013,08,08,15,26,25.10
2013,08,08,15,27,24.90
2013,08,08,15,28,24.90
2013,08,08,15,29,24.90
2013,08,08,15,30,24.80
2013,08,08,15,31,24.90
2013,08,08,15,32,25.00
2013,08,08,15,33,25.00
2013,08,08,15,34,25.20
2013,08,08,15,35,25.30
2013,08,08,15,36,25.40
2013,08,08,15,37,25.50
2013,08,08,15,38,25.50
2013,08,08,15,39,25.50
2013,08,08,15,40,25.60
2013,08,08,15,41,25.60
2013,08,08,15,42,25.70
2013,08,08,15,43,25.70
2013,08,08,15,44,25.60
2013,08,08,15,45,25.50
2013,08,08,15,46,25.40
2013,08,08,15,47,25.40
2013,08,08,15,48,25.30
2013,08,08,15,49,25.20
2013,08,08,15,50,25.20
2013,08,08,15,51,25.10
2013,08,08,15,52,25.10
2013,08,08,15,53,25.10
2013,08,08,15,54,25.10
2013,08,08,15,55,25.20
2013,08,08,15,56,25.40
2013,08,08,15,57,25.50
2013,08,08,15,58,25.60
2013,08,08,15,59,25.60
2013,08,08,16,00,25.60
2013,08,08,16,01,25.60
2013,08,08,16,02,25.60
2013,08,08,16,03,25.60
2013,08,08,16,04,25.60
2013,08,08,16,05,25.60
2013,08,08,16,06,25.60
2013,08,08,16,07,25.60
2013,08,08,16,08,25.60
2013,08,08,16,09,25.60
2013,08,08,16,10,25.60
2013,08,08,16,11,25.70
2013,08,08,16,12,25.60
2013,08,08,16,13,25.60
2013,08,08,16,14,25.60
2013,08,08,16,15,25.60
2013,08,08,16,16,25.70
2013,08,08,16,17,25.70
2013,08,08,16,18,25.70
2013,08,08,16,19,25.70
2013,08,08,16,20,25.80
2013,08,08,16,21,25.80
2013,08,08,16,22,25.90
2013,08,08,16,23,25.90
2013,08,08,16,24,26.00
2013,08,08,16,25,26.10
2013,08,08,16,26,26.30
2013,08,08,16,27,26.40
2013,08,08,16,28,26.50
2013,08,08,16,29,26.50
2013,08,08,16,30,26.50
2013,08,08,16,31,26.40
2013,08,08,16,32,26.30
2013,08,08,16,33,26.30
2013,08,08,16,34,26.20
2013,08,08,16,35,26.10
2013,08,08,16,36,26.00
2013,08,08,16,37,25.90
2013,08,08,16,38,25.80
2013,08,08,16,39,25.80
2013,08,08,16,40,25.80
2013,08,08,16,41,25.90
2013,08,08,16,42,25.90
2013,08,08,16,43,25.90
2013,08,08,16,44,25.90
2013,08,08,16,45,26.00
2013,08,08,16,46,26.10
2013,08,08,16,47,26.20
2013,08,08,16,48,26.20
2013,08,08,16,49,26.10
2013,08,08,16,50,26.10
2013,08,08,16,51,26.00
2013,08,08,16,52,25.90
2013,08,08,16,53,26.00
2013,08,08,16,54,26.00
2013,08,08,16,55,26.00
2013,08,08,16,56,25.90
2013,08,08,16,57,26.00
2013,08,08,16,58,26.00
2013,08,08,16,59,26.00
2013,08,08,17,00,26.00
2013,08,08,17,01,26.00
2013,08,08,17,02,25.90
2013,08,08,17,03,25.90
2013,08,08,17,04,25.90
2013,08,08,17,05,25.80
2013,08,08,17,06,25.80
2013,08,08,17,07,25.70
2013,08,08,17,08,25.70
2013,08,08,17,09,25.70
2013,08,08,17,10,25.60
2013,08,08,17,11,25.60
2013,08,08,17,12,25.60
2013,08,08,17,13,25.60
2013,08,08,17,14,25.60
2013,08,08,17,15,25.60
2013,08,08,17,16,25.60
2013,08,08,17,17,25.70
2013,08,08,17,18,25.70
2013,08,08,17,19,25.70
2013,08,08,17,20,25.70
2013,08,08,17,21,25.70
2013,08,08,17,22,25.70
2013,08,08,17,23,25.80
2013,08,08,17,24,25.80
2013,08,08,17,25,25.90
2013,08,08,17,26,26.00
2013,08,08,17,27,26.10
2013,08,08,17,28,26.20
2013,08,08,17,29,26.30
2013,08,08,17,30,26.30
2013,08,08,17,31,26.40
2013,08,08,17,32,26.40
2013,08,08,17,33,26.30
2013,08,08,17,34,26.30
2013,08,08,17,35,26.30
2013,08,08,17,36,26.20
2013,08,08,17,37,26.20
2013,08,08,17,38,26.20
2013,08,08,17,39,26.20
2013,08,08,17,40,26.10
2013,08,08,17,41,26.00
2013,08,08,17,42,25.90
2013,08,08,17,43,25.90
2013,08,08,17,44,25.90
2013,08,08,17,45,25.90
2013,08,08,17,46,25.90
2013,08,08,17,47,25.90
2013,08,08,17,48,25.80
2013,08,08,17,49,25.80
2013,08,08,17,50,25.70
2013,08,08,17,51,25.80
2013,08,08,17,52,25.90
2013,08,08,17,53,25.90
2013,08,08,17,54,25.90
2013,08,08,17,55,25.90
2013,08,08,17,56,25.90
2013,08,08,17,57,25.80
2013,08,08,17,58,25.80
2013,08,08,17,59,25.80
2013,08,08,18,00,25.80
2013,08,08,18,01,25.80
2013,08,08,18,02,25.80
2013,08,08,18,03,25.90
2013,08,08,18,04,25.90
2013,08,08,18,05,25.90
2013,08,08,18,06,26.00
2013,08,08,18,07,26.10
2013,08,08,18,08,26.10
2013,08,08,18,09,26.10
2013,08,08,18,10,26.10
2013,08,08,18,11,26.00
2013,08,08,18,12,26.00
2013,08,08,18,13,26.10
2013,08,08,18,14,26.10
2013,08,08,18,15,26.00
2013,08,08,18,16,26.00
2013,08,08,18,17,25.90
2013,08,08,18,18,25.90
2013,08,08,18,19,25.90
2013,08,08,18,20,26.00
2013,08,08,18,21,26.00
2013,08,08,18,22,26.00
2013,08,08,18,23,26.00
2013,08,08,18,24,26.10
2013,08,08,18,25,26.20
2013,08,08,18,26,26.10
2013,08,08,18,27,26.10
2013,08,08,18,28,26.10
2013,08,08,18,29,26.10
2013,08,08,18,30,26.10
2013,08,08,18,31,26.10
2013,08,08,18,32,26.10
2013,08,08,18,33,26.20
2013,08,08,18,34,26.20
2013,08,08,18,35,26.30
2013,08,08,18,36,26.30
2013,08,08,18,37,26.30
2013,08,08,18,38,26.30
2013,08,08,18,39,26.30
2013,08,08,18,40,26.30
2013,08,08,18,41,26.30
2013,08,08,18,42,26.30
2013,08,08,18,43,26.30
2013,08,08,18,44,26.30
2013,08,08,18,45,26.30
